NIGCOMSAT 1R (38014 NORAD) Tracking and Keplerian Element Data

This shows tracking and keplerian element data for the satellite.

Feedback or suggestion? Click here.




ElementValue
Catalog38014
NameNIGCOMSAT 1R
Epoch Orbit4803
Epoch Day34.54918638
Epoch Year2025
RAAN106.9767
Inclination0.06
Eccentricity0.0002447
Argument of Perigee220.5376
Mean Anonmoly46.6121
Mean Motion1.00269911
Decay Rate1.49E-06
L11 38014U 11077A 25034.54918638 .00000149 00000+0 00000+0 0 9992
L22 38014 0.0600 106.9767 0002447 220.5376 46.6121 1.00269911 48036



Live tracking and technical data element details for NIGCOMSAT 1R (NORAD 38014). NIGCOMSAT 1R can be tracked NOW for your location showing map with azimuth and elevation plus other details from your city location.







IsCatalogInMostPopularTable: catalog: 38014, numindb: 426
Update: records affected: 1



GetName: 38014 NIGCOMSAT 1R

Hit Count: updated at: Thu, 15 May 2025 18:33:43 GMT